GW7006 Weather Reports


Display with metric or nautical units.
time (UTC)temp
F
wind
direction
speed
MPH
gust
MPH
rain 1hr
in
rain 24hr
in
rain mn
in
humidity
%
barometer
mb
20260503203020 63 268 0.0 1.0 0.00 0.00 0.00 71 1015.1
20260503201510 63 331 0.0 1.0 0.00 0.00 0.00 72 1014.9
20260503200005 63 271 0.0 3.0 0.00 0.00 0.00 73 1014.7
20260503194554 61 283 0.0 1.0 0.00 0.00 0.00 77 1014.6
20260503193042 60 283 0.0 0.0 0.00 0.00 0.00 81 1014.4
20260503191548 61 283 0.0 1.0 0.00 0.00 0.00 79 1014.4
20260503190019 61 283 0.0 0.0 0.00 0.00 0.00 79 1014.4
20260503184518 61 261 0.0 1.0 0.00 0.00 0.00 80 1014.5
20260503183015 59 287 0.0 1.0 0.00 0.00 0.00 83 1014.5
20260503181515 58 266 0.0 0.0 0.00 0.00 0.00 88 1014.6
20260503180026 58 266 0.0 1.0 0.00 0.00 0.00 89 1014.6
20260503174517 57 222 0.0 0.0 0.00 0.00 0.00 89 1014.6
20260503173001 57 222 0.0 0.0 0.00 0.00 0.00 88 1014.7
20260503171556 57 222 0.0 0.0 0.00 0.00 0.00 87 1014.6
20260503090104 58 73 0.0 0.0 0.00 0.00 0.00 86 1017.6
20260503081553 61 217 0.0 1.0 0.00 0.00 0.00 82 1017.2
20260503071507 64 173 0.0 1.0 0.00 0.00 0.00 77 1016.9
20260503054602 71 166 1.0 5.0 0.00 0.00 0.00 65 1017.4
20260503053048 70 165 1.0 3.0 0.00 0.00 0.00 66 1017.2
20260503051544 72 158 1.0 5.0 0.00 0.00 0.00 63 1017.3
20260503050020 75 150 2.0 5.0 0.00 0.00 0.00 59 1017.3
20260503044510 75 12 1.0 5.0 0.00 0.00 0.00 59 1017.5
20260503043006 74 165 1.0 5.0 0.00 0.00 0.00 60 1017.8
20260503041502 75 138 1.0 4.0 0.00 0.00 0.00 58 1017.8
20260503040053 75 110 0.0 4.0 0.00 0.00 0.00 60 1018.1
20260503034552 75 165 2.0 5.0 0.00 0.00 0.00 60 1018.3
20260503033039 73 12 1.0 4.0 0.00 0.00 0.00 63 1018.4
20260503031519 73 99 2.0 5.0 0.00 0.00 0.00 62 1018.6
20260503030020 72 219 0.0 4.0 0.00 0.00 0.00 65 1018.9
20260503024511 72 89 1.0 6.0 0.00 0.00 0.00 65 1019.1
20260503023100 72 83 2.0 7.0 0.00 0.00 0.00 63 1019.3
20260503021544 72 153 1.0 4.0 0.00 0.00 0.00 64 1019.5
20260503020031 71 193 0.0 4.0 0.00 0.00 0.00 65 1019.8
20260503014517 71 118 0.0 5.0 0.00 0.00 0.00 65 1020.2
20260503013026 72 123 1.0 4.0 0.00 0.00 0.00 65 1020.4
20260503011630 70 233 1.0 4.0 0.00 0.00 0.00 69 1020.7
20260503010044 69 134 1.0 5.0 0.00 0.00 0.00 70 1020.8
20260503004536 68 108 1.0 5.0 0.00 0.00 0.00 71 1020.9
20260503003035 67 179 1.0 4.0 0.00 0.00 0.00 73 1020.9
20260503001519 66 96 0.0 3.0 0.00 0.00 0.00 75 1020.9
20260503000016 65 142 0.0 3.0 0.00 0.00 0.00 80 1021.0
20260502234518 64 152 0.0 3.0 0.00 0.00 0.00 90 1021.2
20260502233006 61 165 1.0 3.0 0.00 0.00 0.00 96 1021.3
20260502231503 60 226 0.0 0.0 0.00 0.00 0.00 97 1021.4
20260502224556 59 260 0.0 0.0 0.00 0.00 0.00 97 1021.7
20260502223059 58 264 0.0 0.0 0.00 0.00 0.00 97 1021.7
20260502221540 58 266 0.0 0.0 0.00 0.00 0.00 97 1021.4
20260502220031 57 326 0.0 0.0 0.00 0.00 0.00 98 1021.3
20260502214531 56 331 0.0 0.0 0.00 0.00 0.00 97 1021.3
20260502213037 55 331 0.0 0.0 0.00 0.00 0.00 97 1021.2
20260502211538 54 331 0.0 0.0 0.00 0.00 0.00 97 1020.9
20260502210031 54 331 0.0 0.0 0.00 0.00 0.00 97 1020.7
20260502204538 54 331 0.0 0.0 0.00 0.00 0.00 97 1020.8